Regional Weather Roundup
Issued by NWS

Home | Current Version | Previous Version | Graphics & Text | Print | Product List | Glossary On
Versions: 1 2 3 4 5 6 7 8 9 10 11 12 13 14 15 16 17 18 19 20 21 22 23 24 25 26 27 28 29 30 31 32 33 34 35 36 37 38 39 40 41 42 43 44 45 46 47 48 49 50
000
ASUS43 KMPX 230301
RWRMN
WEATHER ROUNDUP FOR MINNESOTA
NATIONAL WEATHER SERVICE TWIN CITIES/CHANHASSEN MN
1000 PM CDT FRI SEP 22 2017


NOTE: "FAIR" INDICATES FEW OR NO CLOUDS BELOW 12,000 FEET WITH NO
SIGNIFICANT WEATHER AND/OR OBSTRUCTIONS TO VISIBILITY. N/A MEANS
CURRENT SKY AND/OR WEATHER CONDITIONS ARE NOT AVAILABLE.

MNZ060>063-068>070-230400-
   Twin Cities Metro

CITY           SKY/WX    TMP DP  RH WIND       PRES   REMARKS
TWIN CITIES    MOCLDY    85  69  58 S17G24    29.84R
ST PAUL        CLOUDY    80  68  66 SE13      29.84R
CRYSTAL        MOCLDY    85  66  53 S16G26    29.81R
BLAINE         PTCLDY    84  66  54 S17       29.81S
LAKEVILLE      MOCLDY    81  66  61 S16G23    29.84R
EDEN PRAIRIE   CLOUDY    84  69  60 S15G21    29.81R
SOUTH ST PAUL  CLOUDY    81  66  59 SE6       29.84R
LAKE ELMO      FAIR      81  68  65 S12       29.86R
$$
MNZ001>005-007-008-013>017-022>024-027-028-230400-
   Northwest Minnesota

CITY           SKY/WX    TMP DP  RH WIND       PRES   REMARKS
BEMIDJI        CLOUDY    73  71  93 SE9       29.66F
HALLOCK        DRIZZLE   54  52  94 N24G31    29.73R
ROSEAU         LGT RAIN  66  61  82 NE8       29.67F
WARROAD        LGT RAIN  64  61  88 NE6       29.70R
THIEF RVR FALL PTCLDY    66  64  94 NE6       29.64S
CROOKSTON      MOCLDY    61  55  82 NW20G26   29.68R
FOSSTON        CLOUDY    77  70  78 S15G21    29.63S
DETROIT LAKES  CLEAR     79  70  73 S13G21    29.70R
MOORHEAD       CLEAR     66  57  72 NW21      29.70R
PARK RAPIDS    PTCLDY    81  72  74 S18G26    29.70S
MAHNOMEN       FAIR      77  72  84 S15       29.64R
$$
MNZ006-009>011-018-025>026-230400-
   North Central Minnesota

CITY           SKY/WX    TMP DP  RH WIND       PRES   REMARKS
BAUDETTE       TSTM      70  69  97 SW10      29.67R
FLAG ISLAND    LGT RAIN  63  61  94 N10       29.69F
INTL FALLS     CLOUDY    71  68  90 SE9       29.67F
WASKISH        CLOUDY    73  70  88 SE8       29.66R
BIG FORK       CLEAR     73  72  94 SE5       29.70F
LONGVILLE      CLEAR     75  72  88 S12       29.72S
GRAND RAPIDS   PTCLDY    77  72  84 S14       29.74F
CRANE LAKE     CLOUDY    70  68  94 CALM      29.74F
ORR            CLOUDY    72  66  83 SE5       29.70F
COOK           CLEAR     72  70  94 SE6       29.74F
WALKER         FAIR      76  71  83 S10       29.69S
$$
MNZ012-019>021-037-230400-
   Northeast Minnesota

CITY           SKY/WX    TMP DP  RH WIND       PRES   REMARKS
DULUTH         CLEAR     70  66  87 SE12      29.81F
ELY            CLEAR     70  64  83 SE3       29.80F
HIBBING        CLOUDY    71  69  93 SE8       29.76F
EVELETH        CLEAR     73  67  80 SE6       29.79F
DULUTH HARBOR  CLOUDY    63  61  94 E6        29.81F
SILVER BAY     CLOUDY    64  63  94 NE3       29.81F
GRAND MARAIS     N/A     68  61  78 NE8G16    29.82F
$$
MNZ029>031-032-039>041-046>048-054>057-064-230400-
   West Central Minnesota

CITY           SKY/WX    TMP DP  RH WIND       PRES   REMARKS
FERGUS FALLS   CLOUDY    75  64  69 W9        29.71R
WHEATON        CLOUDY    75  61  60 SW10      29.76R
MORRIS         MOCLDY    79  64  61 W12G17    29.74R
ELBOW LAKE     FAIR      79  70  74 SW15G22   29.74R
WADENA         CLOUDY    79  70  73 S14       29.72R
GLENWOOD       MOCLDY    81  70  69 S13       29.78R
APPLETON       TSTM      73  64  73 S10G26    29.76S
BENSON         MOCLDY    81  66  61 W17       29.79R
ORTONVILLE     TSTM      72  63  73 NW13G20   29.75F
MADISON        CLOUDY    73  73 100 S7        29.79S
WILLMAR        FAIR      84  70  61 S6        29.78R
$$
MNZ033>034-036-042>043-049>051-058-059-230400-
   Central Minnesota

CITY           SKY/WX    TMP DP  RH WIND       PRES   REMARKS
ST CLOUD       MOCLDY    82  70  66 S15       29.78R
SAUK CENTRE    FAIR      80  70  70 S12       29.78R
PAYNESVILLE    CLOUDY    83  69  62 S12G17    29.79R
AITKIN         CLEAR     79  70  73 S12G20    29.74S
PINE RIVER     CLEAR     75  68  78 S9        29.77S
BRAINERD       PTCLDY    80  70  71 S15       29.75R
STAPLES        CLOUDY    79  70  73 S10       29.74R
LITTLE FALLS   CLOUDY    79  63  57 S7        29.78R
LITCHFIELD     CLOUDY    82  68  61 S6        29.80R
BUFFALO        MOCLDY    83  66  56 S10G18    29.81R
MAPLE LAKE     MOCLDY    82  69  64 S7        29.81R
HUTCHINSON     CLOUDY    82  69  63 S8G16     29.82S
$$
MNZ037-044-045-052-053-230400-
   East Central Minnesota

CITY           SKY/WX    TMP DP  RH WIND       PRES   REMARKS
PRINCETON      MOCLDY    84  68  58 S12G21    29.80R
MORA           CLOUDY    79  64  61 S8        29.82R
RUSH CITY      CLOUDY    82  66  60 S13       29.82R
MOOSE LAKE     PTCLDY    79  66  65 S8        29.78R
HINCKLEY       FAIR      81  70  69 S9        29.81R
CLOQUET        CLEAR     66  63  88 E6        29.81S
MCGREGOR       PTCLDY    81  68  65 S15G21    29.77R
$$
MNZ071>073-080-081-089-090-097-098-230400-
   Southwest Minnesota

CITY           SKY/WX    TMP DP  RH WIND       PRES   REMARKS
MONTEVIDEO     CLOUDY    82  66  57 NW25G37   29.77R THUNDER
GRANITE FALLS  CLOUDY    83  71  67 SE9       29.79R
CANBY          TSTM      73  68  83 SE7       29.79S
MARSHALL       MOCLDY    83  69  62 S14       29.78R
REDWOOD FALLS  MOCLDY    83  66  56 S16       29.78R
OLIVIA         CLOUDY    81  66  61 S9G17     29.79R
PIPESTONE      CLOUDY    81  66  61 SW13G21   29.82R
WINDOM         PTCLDY    82  64  54 S16G26    29.83R
WORTHINGTON    CLEAR     80  68  66 S16G23    29.83R
JACKSON        CLEAR     79  64  61 S15G25    29.85R
TRACY          CLOUDY    82  69  64 S10G16    29.80R
SLAYTON        PTCLDY    81  63  53 S15G22    29.82R
$$
MNZ065>067-074>077-082>085-091>093-230400-
   South Central Minnesota

CITY           SKY/WX    TMP DP  RH WIND       PRES   REMARKS
MANKATO        PTCLDY    80  69  69 S13G20    29.83S
NEW ULM        CLOUDY    82  64  54 S16       29.81R
ST JAMES       MOCLDY    82  66  57 S17G26    29.83R
FAIRMONT       PTCLDY    78  69  73 S16       29.85S
FARIBAULT      MOCLDY    81  68  65 S14G23    29.86S
OWATONNA       MOCLDY    81  68  65 S16G25    29.87S
WASECA         CLOUDY    79  66  65 S13G22    29.88S
ALBERT LEA     CLEAR     82  70  65 S15       29.89S
$$
MNZ078>079-086>088-094>096-230400-
   Southeast Minnesota

CITY           SKY/WX    TMP DP  RH WIND       PRES   REMARKS
ROCHESTER      CLOUDY    78  67  68 S16G23    29.92R
RED WING       PTCLDY    82  63  51 SE9       29.86R
STANTON        MOCLDY    82  67  61 S13G20    29.83S
DODGE CENTER   PTCLDY    79  66  65 S16G22    29.90S
WINONA         CLEAR     81  64  57 S7G17     29.90F
AUSTIN         CLEAR     79  66  65 S13       29.92R
PRESTON        CLEAR     78  64  62 S16G23    29.94S
$$
ABBREVIATIONS USED IN REMARKS
   TC - TEMPERATURES IN CELSIUS
  WCI - WIND CHILL INDEX
   HX - HEAT INDEX
  VSB - VISIBILITY
$$




USA.gov is the U.S. government's official web portal to all federal, state and local government web resources and services.